Time,TemperatureF,DewpointF,PressureIn,WindDirection,WindDirectionDegrees,WindSpeedMPH,WindSpeedGustMPH,Humidity,HourlyPrecipIn,Conditions,Clouds,dailyrainin,SoftwareType,DateUTC
2013-03-21 00:00:00,17.6,8.2,29.92,WNW,293,1.1,2.0,66,0.00,,,0.00,WUHU216HW,2013-03-21 04:00:00,
2013-03-21 00:05:00,17.6,8.2,29.91,NW,315,0.4,1.3,66,0.00,,,0.00,WUHU216HW,2013-03-21 04:05:00,
2013-03-21 00:10:00,17.6,8.2,29.91,NW,315,0.2,1.1,66,0.00,,,0.00,WUHU216HW,2013-03-21 04:10:00,
2013-03-21 00:15:00,17.6,8.2,29.92,NW,315,1.1,1.8,66,0.00,,,0.00,WUHU216HW,2013-03-21 04:15:00,
2013-03-21 00:20:00,17.5,8.4,29.91,NW,315,0.4,1.8,67,0.00,,,0.00,WUHU216HW,2013-03-21 04:20:00,
2013-03-21 00:25:00,17.5,8.0,29.91,NNW,338,0.4,1.6,66,0.00,,,0.00,WUHU216HW,2013-03-21 04:25:00,
2013-03-21 00:30:00,17.5,8.0,29.91,NNW,338,0.4,0.9,66,0.00,,,0.00,WUHU216HW,2013-03-21 04:30:00,
2013-03-21 00:35:00,17.3,8.2,29.91,NNW,338,0.2,0.9,67,0.00,,,0.00,WUHU216HW,2013-03-21 04:35:00,
2013-03-21 00:40:00,17.3,8.2,29.91,West,270,0.4,0.9,67,0.00,,,0.00,WUHU216HW,2013-03-21 04:40:00,
2013-03-21 00:45:00,17.3,8.2,29.91,NW,315,0.2,1.1,67,0.00,,,0.00,WUHU216HW,2013-03-21 04:45:00,
2013-03-21 00:50:00,17.1,8.0,29.91,NW,315,1.3,1.3,67,0.00,,,0.00,WUHU216HW,2013-03-21 04:50:00,
2013-03-21 00:55:00,17.1,8.0,29.91,NNW,338,0.2,1.3,67,0.00,,,0.00,WUHU216HW,2013-03-21 04:55:00,
2013-03-21 01:00:00,16.9,8.1,29.91,NW,315,0.4,1.3,68,0.00,,,0.00,WUHU216HW,2013-03-21 05:00:00,
2013-03-21 01:05:00,16.9,8.1,29.91,NW,315,0.2,0.9,68,0.00,,,0.00,WUHU216HW,2013-03-21 05:05:00,
2013-03-21 01:10:00,16.9,8.1,29.90,WNW,293,0.4,2.2,68,0.00,,,0.00,WUHU216HW,2013-03-21 05:10:00,
2013-03-21 01:15:00,16.9,8.1,29.90,NW,315,0.4,2.2,68,0.00,,,0.00,WUHU216HW,2013-03-21 05:15:00,
2013-03-21 01:20:00,16.9,8.5,29.90,West,270,1.1,1.1,69,0.00,,,0.00,WUHU216HW,2013-03-21 05:20:00,
2013-03-21 01:25:00,16.9,8.5,29.90,NW,315,0.4,1.1,69,0.00,,,0.00,WUHU216HW,2013-03-21 05:25:00,
2013-03-21 01:30:00,16.7,8.3,29.90,NW,315,0.4,1.1,69,0.00,,,0.00,WUHU216HW,2013-03-21 05:30:00,
2013-03-21 01:35:00,16.7,8.3,29.90,NW,315,0.7,1.1,69,0.00,,,0.00,WUHU216HW,2013-03-21 05:35:00,
2013-03-21 01:40:00,16.6,8.1,29.90,WSW,248,0.7,0.9,69,0.00,,,0.00,WUHU216HW,2013-03-21 05:40:00,
2013-03-21 01:45:00,16.6,8.1,29.90,NNW,338,0.0,0.9,69,0.00,,,0.00,WUHU216HW,2013-03-21 05:45:00,
2013-03-21 01:50:00,16.6,8.1,29.89,NNW,338,0.2,0.7,69,0.00,,,0.00,WUHU216HW,2013-03-21 05:50:00,
2013-03-21 01:55:00,16.6,8.5,29.89,NW,315,0.4,0.9,70,0.00,,,0.00,WUHU216HW,2013-03-21 05:55:00,
2013-03-21 02:00:00,16.4,8.3,29.89,NNW,338,0.4,0.9,70,0.00,,,0.00,WUHU216HW,2013-03-21 06:00:00,
2013-03-21 02:05:00,16.4,8.3,29.89,WNW,293,0.2,1.1,70,0.00,,,0.00,WUHU216HW,2013-03-21 06:05:00,
2013-03-21 02:10:00,16.2,8.1,29.89,WSW,248,0.0,1.3,70,0.00,,,0.00,WUHU216HW,2013-03-21 06:10:00,
2013-03-21 02:15:00,16.2,8.1,29.89,NW,315,0.7,1.3,70,0.00,,,0.00,WUHU216HW,2013-03-21 06:15:00,
2013-03-21 02:20:00,16.2,8.1,29.89,NW,315,0.4,1.8,70,0.00,,,0.00,WUHU216HW,2013-03-21 06:20:00,
2013-03-21 02:25:00,16.2,8.1,29.89,NW,315,0.4,1.8,70,0.00,,,0.00,WUHU216HW,2013-03-21 06:25:00,
2013-03-21 02:30:00,16.2,8.1,29.89,NNW,338,0.2,1.1,70,0.00,,,0.00,WUHU216HW,2013-03-21 06:30:00,
2013-03-21 02:35:00,16.2,8.1,29.89,NW,315,0.0,0.7,70,0.00,,,0.00,WUHU216HW,2013-03-21 06:35:00,
2013-03-21 02:40:00,16.0,8.2,29.89,NW,315,0.2,1.6,71,0.00,,,0.00,WUHU216HW,2013-03-21 06:40:00,
2013-03-21 02:44:00,16.0,8.2,29.88,NW,315,0.4,1.6,71,0.00,,,0.00,WUHU216HW,2013-03-21 06:44:00,
2013-03-21 02:49:00,16.0,8.2,29.88,NW,315,0.4,1.1,71,0.00,,,0.00,WUHU216HW,2013-03-21 06:49:00,
2013-03-21 02:54:00,15.8,8.0,29.88,NW,315,0.0,1.1,71,0.00,,,0.00,WUHU216HW,2013-03-21 06:54:00,
2013-03-21 02:59:00,15.8,8.0,29.88,WNW,293,0.0,1.1,71,0.00,,,0.00,WUHU216HW,2013-03-21 06:59:00,
2013-03-21 03:04:00,15.8,8.0,29.88,WNW,293,0.9,1.1,71,0.00,,,0.00,WUHU216HW,2013-03-21 07:04:00,
2013-03-21 03:09:00,15.8,8.0,29.88,NW,315,0.4,1.1,71,0.00,,,0.00,WUHU216HW,2013-03-21 07:09:00,
2013-03-21 03:14:00,15.7,7.9,29.88,NNW,338,0.4,0.9,71,0.00,,,0.00,WUHU216HW,2013-03-21 07:14:00,
2013-03-21 03:19:00,15.7,7.9,29.88,WNW,293,0.2,1.3,71,0.00,,,0.00,WUHU216HW,2013-03-21 07:19:00,
2013-03-21 03:24:00,15.7,7.9,29.88,NW,315,0.2,1.3,71,0.00,,,0.00,WUHU216HW,2013-03-21 07:24:00,
2013-03-21 03:29:00,15.7,7.9,29.87,NNW,338,0.0,1.3,71,0.00,,,0.00,WUHU216HW,2013-03-21 07:29:00,
2013-03-21 03:34:00,15.5,7.8,29.87,NW,315,0.0,1.3,71,0.00,,,0.00,WUHU216HW,2013-03-21 07:34:00,
2013-03-21 03:39:00,15.5,8.0,29.88,NW,315,0.4,1.1,72,0.00,,,0.00,WUHU216HW,2013-03-21 07:39:00,
2013-03-21 03:44:00,15.5,8.0,29.87,North,0,0.4,1.6,72,0.00,,,0.00,WUHU216HW,2013-03-21 07:44:00,
2013-03-21 03:49:00,15.5,8.0,29.87,WSW,248,0.0,1.6,72,0.00,,,0.00,WUHU216HW,2013-03-21 07:49:00,
2013-03-21 03:54:00,15.5,8.0,29.86,NW,315,0.2,0.7,72,0.00,,,0.00,WUHU216HW,2013-03-21 07:54:00,
2013-03-21 03:59:00,15.5,8.0,29.86,NW,315,0.0,0.4,72,0.00,,,0.00,WUHU216HW,2013-03-21 07:59:00,
2013-03-21 04:04:00,15.5,8.3,29.87,SW,225,0.2,1.1,73,0.00,,,0.00,WUHU216HW,2013-03-21 08:04:00,
2013-03-21 04:09:00,15.5,8.0,29.86,WNW,293,0.4,1.1,72,0.00,,,0.00,WUHU216HW,2013-03-21 08:09:00,
2013-03-21 04:14:00,15.5,8.3,29.86,WNW,293,0.7,0.9,73,0.00,,,0.00,WUHU216HW,2013-03-21 08:14:00,
2013-03-21 04:19:00,15.5,8.3,29.86,West,270,0.0,0.9,73,0.00,,,0.00,WUHU216HW,2013-03-21 08:19:00,
2013-03-21 04:24:00,15.5,8.3,29.86,NW,315,0.4,0.7,73,0.00,,,0.00,WUHU216HW,2013-03-21 08:24:00,
2013-03-21 04:29:00,15.5,8.3,29.86,NW,315,0.2,0.9,73,0.00,,,0.00,WUHU216HW,2013-03-21 08:29:00,
2013-03-21 04:34:00,15.5,8.3,29.85,NW,315,0.4,1.1,73,0.00,,,0.00,WUHU216HW,2013-03-21 08:34:00,
2013-03-21 04:39:00,15.3,8.5,29.86,WNW,293,0.0,1.1,74,0.00,,,0.00,WUHU216HW,2013-03-21 08:39:00,
2013-03-21 04:44:00,15.3,8.5,29.85,WNW,293,0.4,0.9,74,0.00,,,0.00,WUHU216HW,2013-03-21 08:44:00,
2013-03-21 04:50:00,15.3,8.5,29.85,NW,315,0.9,1.1,74,0.00,,,0.00,WUHU216HW,2013-03-21 08:50:00,
2013-03-21 04:55:00,15.3,8.5,29.85,NNW,338,0.4,1.1,74,0.00,,,0.00,WUHU216HW,2013-03-21 08:55:00,
2013-03-21 05:00:00,15.3,8.5,29.85,WNW,293,0.9,1.8,74,0.00,,,0.00,WUHU216HW,2013-03-21 09:00:00,
2013-03-21 05:05:00,15.3,8.5,29.85,NW,315,1.1,1.8,74,0.00,,,0.00,WUHU216HW,2013-03-21 09:05:00,
2013-03-21 05:10:00,15.3,8.5,29.85,NW,315,0.9,1.8,74,0.00,,,0.00,WUHU216HW,2013-03-21 09:10:00,
2013-03-21 05:15:00,15.3,8.5,29.84,NNW,338,0.4,2.0,74,0.00,,,0.00,WUHU216HW,2013-03-21 09:15:00,
2013-03-21 05:20:00,15.5,8.9,29.84,NW,315,0.7,3.4,75,0.00,,,0.00,WUHU216HW,2013-03-21 09:20:00,
2013-03-21 05:25:00,15.5,8.9,29.84,West,270,1.1,3.4,75,0.00,,,0.00,WUHU216HW,2013-03-21 09:25:00,
2013-03-21 05:30:00,15.5,9.3,29.84,NW,315,1.1,2.7,76,0.00,,,0.00,WUHU216HW,2013-03-21 09:30:00,
2013-03-21 05:35:00,15.8,9.5,29.84,NNW,338,0.7,2.7,76,0.00,,,0.00,WUHU216HW,2013-03-21 09:35:00,
2013-03-21 05:40:00,16.0,9.7,29.84,NNW,338,1.1,1.1,76,0.00,,,0.00,WUHU216HW,2013-03-21 09:40:00,
2013-03-21 05:45:00,16.2,9.9,29.84,WNW,293,0.7,1.8,76,0.00,,,0.00,WUHU216HW,2013-03-21 09:45:00,
2013-03-21 05:50:00,16.2,9.9,29.84,WNW,293,1.8,2.2,76,0.00,,,0.00,WUHU216HW,2013-03-21 09:50:00,
2013-03-21 05:55:00,16.4,10.1,29.84,NW,315,0.4,2.2,76,0.00,,,0.00,WUHU216HW,2013-03-21 09:55:00,
2013-03-21 06:00:00,16.6,10.3,29.84,WNW,293,0.7,1.8,76,0.00,,,0.00,WUHU216HW,2013-03-21 10:00:00,
2013-03-21 06:05:00,16.7,10.5,29.84,NW,315,0.9,3.1,76,0.00,,,0.00,WUHU216HW,2013-03-21 10:05:00,
2013-03-21 06:10:00,16.7,10.5,29.84,NNW,338,1.8,3.1,76,0.00,,,0.00,WUHU216HW,2013-03-21 10:10:00,
2013-03-21 06:15:00,16.7,10.5,29.84,NW,315,1.8,2.7,76,0.00,,,0.00,WUHU216HW,2013-03-21 10:15:00,
2013-03-21 06:20:00,16.7,10.5,29.84,North,0,3.1,3.1,76,0.00,,,0.00,WUHU216HW,2013-03-21 10:20:00,
2013-03-21 06:25:00,16.7,10.5,29.85,NW,315,1.1,3.1,76,0.00,,,0.00,WUHU216HW,2013-03-21 10:25:00,
2013-03-21 06:30:00,16.7,10.5,29.85,NNW,338,0.9,2.0,76,0.00,,,0.00,WUHU216HW,2013-03-21 10:30:00,
2013-03-21 06:35:00,16.7,10.5,29.85,NNW,338,0.4,2.0,76,0.00,,,0.00,WUHU216HW,2013-03-21 10:35:00,
2013-03-21 06:40:00,16.7,10.5,29.85,NW,315,0.2,2.0,76,0.00,,,0.00,WUHU216HW,2013-03-21 10:40:00,
2013-03-21 06:45:00,16.9,10.6,29.85,NW,315,1.1,2.5,76,0.00,,,0.00,WUHU216HW,2013-03-21 10:45:00,
2013-03-21 06:50:00,16.9,10.6,29.85,NW,315,0.2,2.5,76,0.00,,,0.00,WUHU216HW,2013-03-21 10:50:00,
2013-03-21 06:55:00,16.7,10.5,29.86,NW,315,0.2,1.6,76,0.00,,,0.00,WUHU216HW,2013-03-21 10:55:00,
2013-03-21 07:00:00,16.9,10.3,29.86,WSW,248,0.4,1.1,75,0.00,,,0.00,WUHU216HW,2013-03-21 11:00:00,
2013-03-21 07:05:00,16.7,10.5,29.86,WNW,293,1.1,1.8,76,0.00,,,0.00,WUHU216HW,2013-03-21 11:05:00,
2013-03-21 07:10:00,16.9,10.6,29.86,NW,315,1.1,2.0,76,0.00,,,0.00,WUHU216HW,2013-03-21 11:10:00,
2013-03-21 07:15:00,16.9,10.6,29.86,NW,315,0.4,2.0,76,0.00,,,0.00,WUHU216HW,2013-03-21 11:15:00,
2013-03-21 07:20:00,16.9,10.6,29.86,WNW,293,0.2,3.1,76,0.00,,,0.00,WUHU216HW,2013-03-21 11:20:00,
2013-03-21 07:25:00,16.9,10.6,29.87,WNW,293,1.6,3.1,76,0.00,,,0.00,WUHU216HW,2013-03-21 11:25:00,
2013-03-21 07:30:00,16.9,10.6,29.86,WNW,293,1.1,1.8,76,0.00,,,0.00,WUHU216HW,2013-03-21 11:30:00,
2013-03-21 07:35:00,16.9,10.6,29.87,WNW,293,0.7,1.8,76,0.00,,,0.00,WUHU216HW,2013-03-21 11:35:00,
2013-03-21 07:39:00,16.9,10.6,29.86,NW,315,0.4,1.3,76,0.00,,,0.00,WUHU216HW,2013-03-21 11:39:00,
2013-03-21 07:44:00,16.9,10.6,29.86,NW,315,1.1,1.8,76,0.00,,,0.00,WUHU216HW,2013-03-21 11:44:00,
2013-03-21 07:49:00,16.9,10.6,29.86,WNW,293,0.9,1.8,76,0.00,,,0.00,WUHU216HW,2013-03-21 11:49:00,
2013-03-21 07:54:00,17.1,10.8,29.86,West,270,0.4,2.5,76,0.00,,,0.00,WUHU216HW,2013-03-21 11:54:00,
2013-03-21 07:59:00,17.3,10.9,29.86,NW,315,0.4,2.5,76,0.00,,,0.00,WUHU216HW,2013-03-21 11:59:00,
2013-03-21 08:04:00,17.5,11.1,29.86,NW,315,0.4,2.5,76,0.00,,,0.00,WUHU216HW,2013-03-21 12:04:00,
2013-03-21 08:09:00,17.5,11.1,29.85,NW,315,0.2,1.1,76,0.00,,,0.00,WUHU216HW,2013-03-21 12:09:00,
2013-03-21 08:14:00,17.6,11.5,29.85,WNW,293,1.3,1.8,77,0.00,,,0.00,WUHU216HW,2013-03-21 12:14:00,
2013-03-21 08:19:00,17.8,11.7,29.85,WNW,293,2.0,2.0,77,0.00,,,0.00,WUHU216HW,2013-03-21 12:19:00,
2013-03-21 08:24:00,18.0,11.9,29.85,NW,315,0.7,2.0,77,0.00,,,0.00,WUHU216HW,2013-03-21 12:24:00,
2013-03-21 08:29:00,18.2,12.1,29.85,ENE,68,0.4,1.8,77,0.00,,,0.00,WUHU216HW,2013-03-21 12:29:00,
2013-03-21 08:34:00,18.4,12.2,29.85,WSW,248,0.7,1.8,77,0.00,,,0.00,WUHU216HW,2013-03-21 12:34:00,
2013-03-21 08:39:00,18.4,12.2,29.85,NNW,338,0.2,2.0,77,0.00,,,0.00,WUHU216HW,2013-03-21 12:39:00,
2013-03-21 08:44:00,18.7,12.6,29.85,NW,315,0.2,2.0,77,0.00,,,0.00,WUHU216HW,2013-03-21 12:44:00,
2013-03-21 08:49:00,18.7,12.6,29.85,WNW,293,0.7,1.3,77,0.00,,,0.00,WUHU216HW,2013-03-21 12:49:00,
2013-03-21 08:54:00,19.1,13.0,29.85,NNW,338,0.7,1.8,77,0.00,,,0.00,WUHU216HW,2013-03-21 12:54:00,
2013-03-21 08:59:00,19.3,13.2,29.85,NW,315,1.1,2.5,77,0.00,,,0.00,WUHU216HW,2013-03-21 12:59:00,
2013-03-21 09:04:00,19.6,13.5,29.85,NW,315,1.8,2.5,77,0.00,,,0.00,WUHU216HW,2013-03-21 13:04:00,
2013-03-21 09:09:00,19.8,13.7,29.85,WNW,293,1.1,3.1,77,0.00,,,0.00,WUHU216HW,2013-03-21 13:09:00,
2013-03-21 09:14:00,19.8,13.7,29.85,NW,315,2.5,3.1,77,0.00,,,0.00,WUHU216HW,2013-03-21 13:14:00,
2013-03-21 09:19:00,20.0,13.9,29.85,NW,315,0.9,2.5,77,0.00,,,0.00,WUHU216HW,2013-03-21 13:19:00,
2013-03-21 09:24:00,20.2,14.1,29.85,NW,315,0.7,2.5,77,0.00,,,0.00,WUHU216HW,2013-03-21 13:24:00,
2013-03-21 09:29:00,20.3,13.9,29.85,NW,315,2.5,3.4,76,0.00,,,0.00,WUHU216HW,2013-03-21 13:29:00,
2013-03-21 09:34:00,20.5,14.0,29.85,NW,315,2.5,4.0,76,0.00,,,0.00,WUHU216HW,2013-03-21 13:34:00,
2013-03-21 09:39:00,20.7,14.2,29.85,NW,315,1.8,4.0,76,0.00,,,0.00,WUHU216HW,2013-03-21 13:39:00,
2013-03-21 09:44:00,21.1,14.6,29.85,WNW,293,0.7,2.7,76,0.00,,,0.00,WUHU216HW,2013-03-21 13:44:00,
2013-03-21 09:49:00,21.4,15.3,29.85,NW,315,1.6,2.7,77,0.00,,,0.00,WUHU216HW,2013-03-21 13:49:00,
2013-03-21 09:54:00,21.6,15.1,29.86,NW,315,3.6,3.6,76,0.00,,,0.00,WUHU216HW,2013-03-21 13:54:00,
2013-03-21 09:59:00,21.6,15.1,29.86,NW,315,2.2,3.6,76,0.00,,,0.00,WUHU216HW,2013-03-21 13:59:00,
2013-03-21 10:04:00,21.8,15.3,29.86,West,270,0.9,3.6,76,0.00,,,0.00,WUHU216HW,2013-03-21 14:04:00,
2013-03-21 10:09:00,22.1,15.7,29.86,West,270,3.4,3.4,76,0.00,,,0.00,WUHU216HW,2013-03-21 14:09:00,
2013-03-21 10:14:00,22.3,15.8,29.86,WNW,293,1.8,3.4,76,0.00,,,0.00,WUHU216HW,2013-03-21 14:14:00,
2013-03-21 10:19:00,22.5,16.0,29.86,WNW,293,1.1,3.4,76,0.00,,,0.00,WUHU216HW,2013-03-21 14:19:00,
2013-03-21 10:24:00,22.7,16.2,29.85,West,270,0.7,3.4,76,0.00,,,0.00,WUHU216HW,2013-03-21 14:24:00,
2013-03-21 10:29:00,22.7,15.9,29.86,NNW,338,1.6,4.7,75,0.00,,,0.00,WUHU216HW,2013-03-21 14:29:00,
2013-03-21 10:34:00,23.0,16.6,29.86,NW,315,2.0,4.7,76,0.00,,,0.00,WUHU216HW,2013-03-21 14:34:00,
2013-03-21 10:39:00,23.2,16.7,29.86,WNW,293,2.5,3.4,76,0.00,,,0.00,WUHU216HW,2013-03-21 14:39:00,
2013-03-21 10:44:00,23.4,16.9,29.86,NW,315,2.5,4.3,76,0.00,,,0.00,WUHU216HW,2013-03-21 14:44:00,
2013-03-21 10:49:00,23.6,17.1,29.86,WNW,293,1.3,4.3,76,0.00,,,0.00,WUHU216HW,2013-03-21 14:49:00,
2013-03-21 10:54:00,23.8,17.3,29.86,West,270,0.7,3.1,76,0.00,,,0.00,WUHU216HW,2013-03-21 14:54:00,
2013-03-21 10:59:00,23.9,17.5,29.86,WNW,293,0.7,3.1,76,0.00,,,0.00,WUHU216HW,2013-03-21 14:59:00,
2013-03-21 11:04:00,24.1,17.7,29.86,WNW,293,0.7,3.1,76,0.00,,,0.00,WUHU216HW,2013-03-21 15:04:00,
2013-03-21 11:09:00,24.1,17.3,29.87,NW,315,1.6,3.1,75,0.00,,,0.00,WUHU216HW,2013-03-21 15:09:00,
2013-03-21 11:14:00,24.3,17.5,29.87,NW,315,1.1,3.4,75,0.00,,,0.00,WUHU216HW,2013-03-21 15:14:00,
2013-03-21 11:19:00,24.3,17.5,29.87,NW,315,1.3,3.4,75,0.00,,,0.00,WUHU216HW,2013-03-21 15:19:00,
2013-03-21 11:24:00,24.7,18.2,29.87,NNW,338,2.5,2.5,76,0.00,,,0.00,WUHU216HW,2013-03-21 15:24:00,
2013-03-21 11:29:00,24.8,18.0,29.88,NW,315,0.4,3.8,75,0.00,,,0.00,WUHU216HW,2013-03-21 15:29:00,
2013-03-21 11:34:00,25.0,18.2,29.88,WNW,293,1.8,4.3,75,0.00,,,0.00,WUHU216HW,2013-03-21 15:34:00,
2013-03-21 11:39:00,25.2,18.4,29.88,West,270,2.0,4.3,75,0.00,,,0.00,WUHU216HW,2013-03-21 15:39:00,
2013-03-21 11:44:00,25.6,18.7,29.89,NW,315,0.9,3.1,75,0.00,,,0.00,WUHU216HW,2013-03-21 15:44:00,
2013-03-21 11:49:00,25.6,18.7,29.88,NNW,338,0.7,3.1,75,0.00,,,0.00,WUHU216HW,2013-03-21 15:49:00,
2013-03-21 11:54:00,25.7,18.8,29.89,West,270,2.5,4.0,75,0.00,,,0.00,WUHU216HW,2013-03-21 15:54:00,
2013-03-21 11:59:00,26.1,19.2,29.89,West,270,2.0,4.0,75,0.00,,,0.00,WUHU216HW,2013-03-21 15:59:00,
2013-03-21 12:04:00,26.3,19.4,29.89,WNW,293,1.6,4.0,75,0.00,,,0.00,WUHU216HW,2013-03-21 16:04:00,
2013-03-21 12:09:00,26.5,19.3,29.89,NW,315,1.6,4.0,74,0.00,,,0.00,WUHU216HW,2013-03-21 16:09:00,
2013-03-21 12:14:00,26.6,19.5,29.88,NNW,338,0.2,3.6,74,0.00,,,0.00,WUHU216HW,2013-03-21 16:14:00,
2013-03-21 12:19:00,27.0,19.8,29.89,West,270,1.8,3.4,74,0.00,,,0.00,WUHU216HW,2013-03-21 16:19:00,
2013-03-21 12:24:00,27.0,19.4,29.88,WNW,293,2.7,4.5,73,0.00,,,0.00,WUHU216HW,2013-03-21 16:24:00,
2013-03-21 12:29:00,27.4,19.8,29.88,West,270,1.6,4.5,73,0.00,,,0.00,WUHU216HW,2013-03-21 16:29:00,
2013-03-21 12:34:00,27.7,20.2,29.88,WNW,293,0.7,4.0,73,0.00,,,0.00,WUHU216HW,2013-03-21 16:34:00,
2013-03-21 12:39:00,27.7,20.2,29.88,NW,315,3.1,4.0,73,0.00,,,0.00,WUHU216HW,2013-03-21 16:39:00,
2013-03-21 12:44:00,27.9,20.3,29.88,WNW,293,1.8,3.1,73,0.00,,,0.00,WUHU216HW,2013-03-21 16:44:00,
2013-03-21 12:49:00,27.9,20.3,29.88,NNW,338,2.5,3.1,73,0.00,,,0.00,WUHU216HW,2013-03-21 16:49:00,
2013-03-21 12:54:00,27.9,20.1,29.88,NW,315,1.1,3.1,72,0.00,,,0.00,WUHU216HW,2013-03-21 16:54:00,
2013-03-21 12:59:00,28.1,20.3,29.88,NW,315,1.1,3.4,72,0.00,,,0.00,WUHU216HW,2013-03-21 16:59:00,
2013-03-21 13:04:00,28.4,20.6,29.88,NW,315,2.7,3.4,72,0.00,,,0.00,WUHU216HW,2013-03-21 17:04:00,
2013-03-21 13:09:00,28.4,20.6,29.88,NW,315,2.9,3.4,72,0.00,,,0.00,WUHU216HW,2013-03-21 17:09:00,
2013-03-21 13:14:00,28.4,20.6,29.88,WNW,293,2.2,2.9,72,0.00,,,0.00,WUHU216HW,2013-03-21 17:14:00,
2013-03-21 13:19:00,28.4,20.6,29.88,NW,315,1.3,2.9,72,0.00,,,0.00,WUHU216HW,2013-03-21 17:19:00,
2013-03-21 13:24:00,28.8,20.6,29.88,WNW,293,1.6,2.7,71,0.00,,,0.00,WUHU216HW,2013-03-21 17:24:00,
2013-03-21 13:29:00,28.8,20.6,29.88,NW,315,0.4,4.3,71,0.00,,,0.00,WUHU216HW,2013-03-21 17:29:00,
2013-03-21 13:34:00,29.2,21.0,29.88,WNW,293,1.8,4.3,71,0.00,,,0.00,WUHU216HW,2013-03-21 17:34:00,
2013-03-21 13:39:00,29.2,20.6,29.88,NW,315,3.1,4.0,70,0.00,,,0.00,WUHU216HW,2013-03-21 17:39:00,
2013-03-21 13:44:00,29.2,19.9,29.88,NW,315,2.5,4.0,68,0.00,,,0.00,WUHU216HW,2013-03-21 17:44:00,
2013-03-21 13:49:00,29.3,20.1,29.88,WSW,248,1.6,5.4,68,0.00,,,0.00,WUHU216HW,2013-03-21 17:49:00,
2013-03-21 13:54:00,29.3,20.1,29.88,NNW,338,1.3,5.4,68,0.00,,,0.00,WUHU216HW,2013-03-21 17:54:00,
2013-03-21 13:59:00,29.3,20.1,29.88,NW,315,2.5,3.4,68,0.00,,,0.00,WUHU216HW,2013-03-21 17:59:00,
2013-03-21 14:04:00,29.2,19.5,29.88,WNW,293,2.2,3.4,67,0.00,,,0.00,WUHU216HW,2013-03-21 18:04:00,
2013-03-21 14:09:00,29.5,19.9,29.88,West,270,2.7,3.4,67,0.00,,,0.00,WUHU216HW,2013-03-21 18:09:00,
2013-03-21 14:14:00,29.7,20.1,29.88,NW,315,2.2,3.4,67,0.00,,,0.00,WUHU216HW,2013-03-21 18:14:00,
2013-03-21 14:19:00,29.9,19.8,29.88,WNW,293,1.8,3.6,66,0.00,,,0.00,WUHU216HW,2013-03-21 18:19:00,
2013-03-21 14:24:00,29.9,19.8,29.87,NNW,338,1.3,3.6,66,0.00,,,0.00,WUHU216HW,2013-03-21 18:24:00,
2013-03-21 14:29:00,29.9,19.8,29.87,NW,315,2.2,2.9,66,0.00,,,0.00,WUHU216HW,2013-03-21 18:29:00,
2013-03-21 14:34:00,30.1,19.6,29.87,NW,315,1.1,4.7,65,0.00,,,0.00,WUHU216HW,2013-03-21 18:34:00,
2013-03-21 14:39:00,30.1,19.6,29.87,WNW,293,1.1,4.7,65,0.00,,,0.00,WUHU216HW,2013-03-21 18:39:00,
2013-03-21 14:44:00,30.1,19.3,29.87,NW,315,3.4,3.4,64,0.00,,,0.00,WUHU216HW,2013-03-21 18:44:00,
2013-03-21 14:49:00,30.1,19.3,29.87,WNW,293,2.0,3.4,64,0.00,,,0.00,WUHU216HW,2013-03-21 18:49:00,
2013-03-21 14:54:00,30.4,19.6,29.87,WNW,293,1.8,3.4,64,0.00,,,0.00,WUHU216HW,2013-03-21 18:54:00,
2013-03-21 14:59:00,30.4,19.3,29.87,NW,315,2.7,3.4,63,0.00,,,0.00,WUHU216HW,2013-03-21 18:59:00,
2013-03-21 15:04:00,30.4,19.3,29.87,NNW,338,0.4,3.4,63,0.00,,,0.00,WUHU216HW,2013-03-21 19:04:00,
2013-03-21 15:09:00,30.2,19.1,29.88,NW,315,1.1,3.4,63,0.00,,,0.00,WUHU216HW,2013-03-21 19:09:00,
2013-03-21 15:14:00,30.2,18.7,29.88,NW,315,2.5,3.4,62,0.00,,,0.00,WUHU216HW,2013-03-21 19:14:00,
2013-03-21 15:19:00,30.2,19.1,29.87,NNW,338,1.3,3.4,63,0.00,,,0.00,WUHU216HW,2013-03-21 19:19:00,
2013-03-21 15:24:00,30.2,18.7,29.87,NNW,338,2.0,3.4,62,0.00,,,0.00,WUHU216HW,2013-03-21 19:24:00,
2013-03-21 15:29:00,30.2,18.7,29.87,WNW,293,1.8,6.0,62,0.00,,,0.00,WUHU216HW,2013-03-21 19:29:00,
2013-03-21 15:34:00,30.2,18.7,29.88,NNW,338,1.6,6.0,62,0.00,,,0.00,WUHU216HW,2013-03-21 19:34:00,
2013-03-21 15:39:00,30.2,18.7,29.87,NW,315,1.1,4.0,62,0.00,,,0.00,WUHU216HW,2013-03-21 19:39:00,
2013-03-21 15:44:00,30.4,18.5,29.87,WNW,293,2.5,4.0,61,0.00,,,0.00,WUHU216HW,2013-03-21 19:44:00,
2013-03-21 15:49:00,30.2,18.7,29.87,NW,315,1.6,4.3,62,0.00,,,0.00,WUHU216HW,2013-03-21 19:49:00,
2013-03-21 15:54:00,30.2,18.7,29.87,NW,315,2.9,4.3,62,0.00,,,0.00,WUHU216HW,2013-03-21 19:54:00,
2013-03-21 15:59:00,30.2,19.1,29.87,NW,315,2.5,3.8,63,0.00,,,0.00,WUHU216HW,2013-03-21 19:59:00,
2013-03-21 16:04:00,30.4,18.9,29.88,NNW,338,1.6,3.6,62,0.00,,,0.00,WUHU216HW,2013-03-21 20:04:00,
2013-03-21 16:09:00,30.4,18.9,29.88,NW,315,2.5,3.6,62,0.00,,,0.00,WUHU216HW,2013-03-21 20:09:00,
2013-03-21 16:14:00,30.4,18.9,29.88,NW,315,2.5,3.6,62,0.00,,,0.00,WUHU216HW,2013-03-21 20:14:00,
2013-03-21 16:19:00,30.4,18.9,29.88,WNW,293,1.1,3.8,62,0.00,,,0.00,WUHU216HW,2013-03-21 20:19:00,
2013-03-21 16:24:00,30.6,19.1,29.87,NW,315,0.9,4.7,62,0.00,,,0.00,WUHU216HW,2013-03-21 20:24:00,
2013-03-21 16:29:00,30.6,19.1,29.87,WNW,293,2.5,4.7,62,0.00,,,0.00,WUHU216HW,2013-03-21 20:29:00,
2013-03-21 16:34:00,30.8,19.3,29.87,NNW,338,1.1,4.0,62,0.00,,,0.00,WUHU216HW,2013-03-21 20:34:00,
2013-03-21 16:39:00,30.8,19.3,29.88,NW,315,1.1,4.0,62,0.00,,,0.00,WUHU216HW,2013-03-21 20:39:00,
2013-03-21 16:44:00,30.6,19.4,29.88,North,0,1.3,4.0,63,0.00,,,0.00,WUHU216HW,2013-03-21 20:44:00,
2013-03-21 16:49:00,30.6,19.4,29.87,NW,315,3.1,4.0,63,0.00,,,0.00,WUHU216HW,2013-03-21 20:49:00,
2013-03-21 16:54:00,30.6,19.4,29.87,SE,135,1.6,4.0,63,0.00,,,0.00,WUHU216HW,2013-03-21 20:54:00,
2013-03-21 16:59:00,30.8,20.0,29.87,WNW,293,1.8,3.6,64,0.00,,,0.00,WUHU216HW,2013-03-21 20:59:00,
2013-03-21 17:04:00,30.8,19.6,29.88,NNW,338,2.0,6.3,63,0.00,,,0.00,WUHU216HW,2013-03-21 21:04:00,
2013-03-21 17:09:00,31.0,20.2,29.88,NW,315,2.2,6.3,64,0.00,,,0.00,WUHU216HW,2013-03-21 21:09:00,
2013-03-21 17:14:00,31.1,20.3,29.87,NW,315,2.5,3.4,64,0.00,,,0.00,WUHU216HW,2013-03-21 21:14:00,
2013-03-21 17:19:00,31.3,20.2,29.87,NW,315,2.2,4.0,63,0.00,,,0.00,WUHU216HW,2013-03-21 21:19:00,
2013-03-21 17:24:00,31.7,20.5,29.87,NW,315,2.0,4.0,63,0.00,,,0.00,WUHU216HW,2013-03-21 21:24:00,
2013-03-21 17:29:00,31.3,20.2,29.87,NW,315,3.8,4.5,63,0.00,,,0.00,WUHU216HW,2013-03-21 21:29:00,
2013-03-21 17:34:00,31.1,19.6,29.87,WSW,248,4.3,4.7,62,0.00,,,0.00,WUHU216HW,2013-03-21 21:34:00,
2013-03-21 17:39:00,31.1,20.0,29.87,West,270,4.0,4.7,63,0.00,,,0.00,WUHU216HW,2013-03-21 21:39:00,
2013-03-21 17:44:00,31.3,19.8,29.87,NNW,338,2.0,4.3,62,0.00,,,0.00,WUHU216HW,2013-03-21 21:44:00,
2013-03-21 17:49:00,31.3,19.8,29.87,NW,315,1.8,4.0,62,0.00,,,0.00,WUHU216HW,2013-03-21 21:49:00,
2013-03-21 17:54:00,31.3,19.8,29.87,NW,315,1.8,3.6,62,0.00,,,0.00,WUHU216HW,2013-03-21 21:54:00,
2013-03-21 17:59:00,31.3,19.8,29.87,NW,315,1.8,3.6,62,0.00,,,0.00,WUHU216HW,2013-03-21 21:59:00,
2013-03-21 18:04:00,31.3,19.8,29.87,West,270,0.4,3.4,62,0.00,,,0.00,WUHU216HW,2013-03-21 22:04:00,
2013-03-21 18:09:00,31.3,19.8,29.87,West,270,1.8,3.4,62,0.00,,,0.00,WUHU216HW,2013-03-21 22:09:00,
2013-03-21 18:14:00,31.1,19.6,29.88,NW,315,1.3,3.4,62,0.00,,,0.00,WUHU216HW,2013-03-21 22:14:00,
2013-03-21 18:19:00,31.0,19.8,29.88,NW,315,1.3,2.7,63,0.00,,,0.00,WUHU216HW,2013-03-21 22:19:00,
2013-03-21 18:24:00,31.0,20.2,29.87,NNW,338,3.4,3.8,64,0.00,,,0.00,WUHU216HW,2013-03-21 22:24:00,
2013-03-21 18:29:00,30.8,20.0,29.88,WNW,293,1.6,3.8,64,0.00,,,0.00,WUHU216HW,2013-03-21 22:29:00,
2013-03-21 18:34:00,30.6,20.2,29.88,NW,315,1.1,4.0,65,0.00,,,0.00,WUHU216HW,2013-03-21 22:34:00,
2013-03-21 18:39:00,30.6,20.5,29.88,WNW,293,2.2,4.0,66,0.00,,,0.00,WUHU216HW,2013-03-21 22:39:00,
2013-03-21 18:44:00,30.6,20.5,29.88,NW,315,0.9,4.0,66,0.00,,,0.00,WUHU216HW,2013-03-21 22:44:00,
2013-03-21 18:49:00,30.6,20.5,29.88,NW,315,1.1,3.1,66,0.00,,,0.00,WUHU216HW,2013-03-21 22:49:00,
2013-03-21 18:54:00,30.6,20.2,29.88,NNW,338,2.0,3.4,65,0.00,,,0.00,WUHU216HW,2013-03-21 22:54:00,
2013-03-21 18:59:00,30.6,20.5,29.88,NW,315,2.0,3.4,66,0.00,,,0.00,WUHU216HW,2013-03-21 22:59:00,
2013-03-21 19:04:00,30.4,20.3,29.88,NW,315,1.8,3.4,66,0.00,,,0.00,WUHU216HW,2013-03-21 23:04:00,
2013-03-21 19:09:00,30.2,20.5,29.88,NW,315,2.0,3.4,67,0.00,,,0.00,WUHU216HW,2013-03-21 23:09:00,
2013-03-21 19:14:00,30.1,20.7,29.88,NW,315,2.0,3.4,68,0.00,,,0.00,WUHU216HW,2013-03-21 23:14:00,
2013-03-21 19:19:00,29.9,20.5,29.88,NW,315,0.9,3.4,68,0.00,,,0.00,WUHU216HW,2013-03-21 23:19:00,
2013-03-21 19:24:00,29.9,20.5,29.88,NNW,338,1.8,2.5,68,0.00,,,0.00,WUHU216HW,2013-03-21 23:24:00,
2013-03-21 19:29:00,29.9,20.2,29.88,NW,315,1.1,3.4,67,0.00,,,0.00,WUHU216HW,2013-03-21 23:29:00,
2013-03-21 19:34:00,29.9,20.2,29.88,NW,315,1.8,3.4,67,0.00,,,0.00,WUHU216HW,2013-03-21 23:34:00,
2013-03-21 19:39:00,29.7,20.1,29.88,SSW,203,0.7,3.4,67,0.00,,,0.00,WUHU216HW,2013-03-21 23:39:00,
2013-03-21 19:44:00,29.7,20.1,29.88,NNW,338,3.4,4.0,67,0.00,,,0.00,WUHU216HW,2013-03-21 23:44:00,
2013-03-21 19:49:00,29.7,20.1,29.88,NW,315,1.3,4.0,67,0.00,,,0.00,WUHU216HW,2013-03-21 23:49:00,
2013-03-21 19:54:00,29.5,19.9,29.88,NW,315,1.1,3.4,67,0.00,,,0.00,WUHU216HW,2013-03-21 23:54:00,
2013-03-21 19:59:00,29.5,20.3,29.89,NW,315,0.4,3.4,68,0.00,,,0.00,WUHU216HW,2013-03-21 23:59:00,
2013-03-21 20:04:00,29.5,20.3,29.89,WNW,293,0.9,2.9,68,0.00,,,0.00,WUHU216HW,2013-03-22 00:04:00,
2013-03-21 20:09:00,29.3,20.1,29.89,NNW,338,1.3,3.4,68,0.00,,,0.00,WUHU216HW,2013-03-22 00:09:00,
2013-03-21 20:14:00,29.2,19.9,29.89,WNW,293,2.0,4.0,68,0.00,,,0.00,WUHU216HW,2013-03-22 00:14:00,
2013-03-21 20:19:00,29.2,19.9,29.89,NNW,338,2.5,4.0,68,0.00,,,0.00,WUHU216HW,2013-03-22 00:19:00,
2013-03-21 20:24:00,29.2,20.3,29.89,WNW,293,0.4,3.6,69,0.00,,,0.00,WUHU216HW,2013-03-22 00:24:00,
2013-03-21 20:29:00,29.0,20.1,29.89,WSW,248,1.8,3.8,69,0.00,,,0.00,WUHU216HW,2013-03-22 00:29:00,
2013-03-21 20:34:00,29.0,20.1,29.89,NW,315,2.2,3.8,69,0.00,,,0.00,WUHU216HW,2013-03-22 00:34:00,
2013-03-21 20:39:00,28.8,20.0,29.90,NNW,338,1.1,3.4,69,0.00,,,0.00,WUHU216HW,2013-03-22 00:39:00,
2013-03-21 20:44:00,28.8,20.4,29.90,WNW,293,2.7,4.0,70,0.00,,,0.00,WUHU216HW,2013-03-22 00:44:00,
2013-03-21 20:49:00,28.6,20.2,29.90,WNW,293,2.0,4.7,70,0.00,,,0.00,WUHU216HW,2013-03-22 00:49:00,
2013-03-21 20:54:00,28.4,20.3,29.90,NNW,338,1.6,4.7,71,0.00,,,0.00,WUHU216HW,2013-03-22 00:54:00,
2013-03-21 20:59:00,28.4,20.3,29.90,NW,315,0.9,3.6,71,0.00,,,0.00,WUHU216HW,2013-03-22 00:59:00,
2013-03-21 21:03:00,28.4,20.3,29.90,NNW,338,0.7,3.4,71,0.00,,,0.00,WUHU216HW,2013-03-22 01:03:00,
2013-03-21 21:08:00,28.3,20.4,29.90,NNW,338,1.1,3.1,72,0.00,,,0.00,WUHU216HW,2013-03-22 01:08:00,
2013-03-21 21:13:00,28.3,20.4,29.90,NW,315,2.7,3.1,72,0.00,,,0.00,WUHU216HW,2013-03-22 01:13:00,
2013-03-21 21:18:00,28.3,20.4,29.91,West,270,1.8,2.7,72,0.00,,,0.00,WUHU216HW,2013-03-22 01:18:00,
2013-03-21 21:23:00,28.3,20.7,29.91,WNW,293,1.6,2.7,73,0.00,,,0.00,WUHU216HW,2013-03-22 01:23:00,
2013-03-21 21:28:00,28.1,20.5,29.91,West,270,1.6,2.0,73,0.00,,,0.00,WUHU216HW,2013-03-22 01:28:00,
2013-03-21 21:33:00,28.1,20.5,29.91,NW,315,1.1,3.4,73,0.00,,,0.00,WUHU216HW,2013-03-22 01:33:00,
2013-03-21 21:38:00,28.1,20.5,29.91,NW,315,1.3,3.4,73,0.00,,,0.00,WUHU216HW,2013-03-22 01:38:00,
2013-03-21 21:43:00,27.9,20.3,29.91,WSW,248,1.6,3.1,73,0.00,,,0.00,WUHU216HW,2013-03-22 01:43:00,
2013-03-21 21:48:00,27.9,20.3,29.91,WNW,293,1.3,3.4,73,0.00,,,0.00,WUHU216HW,2013-03-22 01:48:00,
2013-03-21 21:53:00,27.9,20.3,29.91,West,270,0.9,3.4,73,0.00,,,0.00,WUHU216HW,2013-03-22 01:53:00,
2013-03-21 21:58:00,27.9,20.1,29.91,WNW,293,1.1,3.4,72,0.00,,,0.00,WUHU216HW,2013-03-22 01:58:00,
2013-03-21 22:03:00,27.7,19.9,29.91,NNW,338,1.6,2.5,72,0.00,,,0.00,WUHU216HW,2013-03-22 02:03:00,
2013-03-21 22:08:00,27.7,19.9,29.91,NW,315,2.2,2.9,72,0.00,,,0.00,WUHU216HW,2013-03-22 02:08:00,
2013-03-21 22:13:00,27.7,19.9,29.91,WNW,293,0.9,2.9,72,0.00,,,0.00,WUHU216HW,2013-03-22 02:13:00,
2013-03-21 22:18:00,27.7,19.9,29.91,NW,315,1.8,2.5,72,0.00,,,0.00,WUHU216HW,2013-03-22 02:18:00,
2013-03-21 22:23:00,27.7,19.9,29.91,NNW,338,1.1,2.5,72,0.00,,,0.00,WUHU216HW,2013-03-22 02:23:00,
2013-03-21 22:28:00,27.7,19.9,29.91,North,0,0.7,2.7,72,0.00,,,0.00,WUHU216HW,2013-03-22 02:28:00,
2013-03-21 22:33:00,27.5,19.7,29.91,NW,315,1.8,2.9,72,0.00,,,0.00,WUHU216HW,2013-03-22 02:33:00,
2013-03-21 22:38:00,27.5,19.7,29.91,West,270,2.7,4.5,72,0.00,,,0.00,WUHU216HW,2013-03-22 02:38:00,
2013-03-21 22:43:00,27.4,19.5,29.91,NNW,338,0.9,4.5,72,0.00,,,0.00,WUHU216HW,2013-03-22 02:43:00,
2013-03-21 22:48:00,27.4,19.2,29.91,NW,315,1.1,3.4,71,0.00,,,0.00,WUHU216HW,2013-03-22 02:48:00,
2013-03-21 22:53:00,27.4,19.2,29.91,NW,315,1.8,2.9,71,0.00,,,0.00,WUHU216HW,2013-03-22 02:53:00,
2013-03-21 22:58:00,27.4,19.2,29.92,NNW,338,1.1,3.4,71,0.00,,,0.00,WUHU216HW,2013-03-22 02:58:00,
2013-03-21 23:03:00,27.4,19.2,29.92,NW,315,1.8,3.4,71,0.00,,,0.00,WUHU216HW,2013-03-22 03:03:00,
2013-03-21 23:08:00,27.4,19.2,29.92,NW,315,0.7,2.9,71,0.00,,,0.00,WUHU216HW,2013-03-22 03:08:00,
2013-03-21 23:13:00,27.4,19.2,29.92,WNW,293,0.7,2.9,71,0.00,,,0.00,WUHU216HW,2013-03-22 03:13:00,
2013-03-21 23:18:00,27.2,19.0,29.92,NW,315,2.7,3.1,71,0.00,,,0.00,WUHU216HW,2013-03-22 03:18:00,
2013-03-21 23:23:00,27.2,19.0,29.92,NW,315,1.1,3.8,71,0.00,,,0.00,WUHU216HW,2013-03-22 03:23:00,
2013-03-21 23:28:00,27.2,19.0,29.92,West,270,1.8,3.8,71,0.00,,,0.00,WUHU216HW,2013-03-22 03:28:00,
2013-03-21 23:33:00,27.0,18.8,29.92,NW,315,1.8,3.1,71,0.00,,,0.00,WUHU216HW,2013-03-22 03:33:00,
2013-03-21 23:38:00,27.0,18.8,29.92,WNW,293,0.4,2.9,71,0.00,,,0.00,WUHU216HW,2013-03-22 03:38:00,
2013-03-21 23:43:00,27.0,18.8,29.92,NNW,338,1.3,3.4,71,0.00,,,0.00,WUHU216HW,2013-03-22 03:43:00,
2013-03-21 23:48:00,27.0,18.8,29.92,WNW,293,1.1,3.6,71,0.00,,,0.00,WUHU216HW,2013-03-22 03:48:00,
2013-03-21 23:53:00,26.8,18.6,29.92,West,270,1.1,3.6,71,0.00,,,0.00,WUHU216HW,2013-03-22 03:53:00,
2013-03-21 23:58:00,26.8,18.6,29.92,NW,315,0.2,2.5,71,0.00,,,0.00,WUHU216HW,2013-03-22 03:58:00,